Hudson Falls, NY

9:36 AM EST on February 10, 2016 (GMT -0500)
Bennett Memorial

Weather History for KGFL - September, 2012

Change the Weather History Date:

Sunday, September 16, 2012

  Actual Average Record
Temperature  
Mean Temperature 54 °F 58 °F  
Max Temperature 69 °F 71 °F 87 °F (1991)
Min Temperature 39 °F 46 °F 32 °F (1964)
Degree Days  
Heating Degree Days 11 7  
Month to date heating degree days 55 79  
Since 1 July heating degree days 70 145  
Cooling Degree Days 0 1  
Month to date cooling degree days 25 21  
Year to date cooling degree days 533 348  
Growing Degree Days 4 (Base 50)    
Moisture  
Dew Point 43 °F    
Average Humidity 70    
Maximum Humidity 100    
Minimum Humidity 39    
Precipitation  
Precipitation 0.00 in 0.11 in 3.55 in (1999)
Month to date precipitation 1.60 1.69  
Year to date precipitation 22.48 27.50  
Sea Level Pressure  
Sea Level Pressure 30.08 in    
Wind  
Wind Speed 1 mph (SSE)    
Max Wind Speed 9 mph    
Max Gust Speed 12 mph    
Visibility 7 miles    
Events Fog    
T = Trace of Precipitation, MM = Missing Value Source: NWS Daily Summary

Daily Weather History Graph

Daily Weather History Graph

Search for Another Location

Airport or City:

Trip Planner

Search our weather history database for the weather conditions in past years. The results will help you decide how hot, cold, wet, or windy it might be!

Date:

Astronomy

Sep. 16, 2012 Rise Set
Actual Time 6:35 AM EDT 7:01 PM EDT
Civil Twilight 6:06 AM EDT 7:30 PM EDT
Nautical Twilight 5:33 AM EDT 8:04 PM EDT
Astronomical Twilight 4:58 AM EDT 8:38 PM EDT
Moon 7:14 AM EDT (9/16) 7:01 PM EDT (9/16)
Length of Visible Light 13h 23m
Length of Day
12h 26m
New Moon, 0% of the Moon is Illuminated
Sep 16
New Moon
Sep 22
First Quarter
Sep 29
Full
Oct 8
Last Quarter
Oct 15
New

Hourly Weather History & Observations

Time (EDT) Temp. Windchill Dew Point Humidity Pressure Visibility Wind Dir Wind Speed Gust Speed Precip Events Conditions
12:53 AM 44.1 °F - 44.1 °F 100% 30.09 in 7.0 mi Calm Calm - N/A   Clear
1:53 AM 43.0 °F - 43.0 °F 100% 30.09 in 5.0 mi Calm Calm - N/A   Mostly Cloudy
2:53 AM 46.0 °F - 45.0 °F 96% 30.09 in 10.0 mi Calm Calm - N/A   Mostly Cloudy
3:53 AM 43.0 °F - 42.1 °F 97% 30.08 in 10.0 mi Calm Calm - N/A   Clear
3:58 AM 42.8 °F - 42.8 °F 100% 30.07 in 1.8 mi Calm Calm - N/A   Clear
4:05 AM 42.8 °F - 42.8 °F 100% 30.08 in 3.0 mi Calm Calm - N/A   Clear
4:25 AM 42.8 °F - 42.8 °F 100% 30.07 in 2.5 mi Calm Calm - N/A   Partly Cloudy
4:31 AM 41.0 °F - 41.0 °F 100% 30.07 in 0.8 mi Calm Calm - N/A   Scattered Clouds
4:37 AM 41.0 °F - 41.0 °F 100% 30.08 in 1.0 mi Calm Calm - N/A   Scattered Clouds
4:43 AM 42.8 °F 40.1 °F 42.8 °F 100% 30.08 in 3.0 mi SSW 4.6 mph - N/A   Scattered Clouds
4:53 AM 42.1 °F - 42.1 °F 100% 30.09 in 10.0 mi Calm Calm - N/A   Scattered Clouds
5:53 AM 41.0 °F - 39.9 °F 96% 30.10 in 10.0 mi Calm Calm - N/A   Clear
6:15 AM 41.0 °F - 41.0 °F 100% 30.10 in 1.8 mi Calm Calm - N/A   Clear
6:25 AM 39.2 °F - 39.2 °F 100% 30.10 in 0.8 mi Calm Calm - N/A   Clear
6:40 AM 39.2 °F - 39.2 °F 100% 30.11 in 0.2 mi Calm Calm - N/A Fog Fog
6:55 AM 39.2 °F - 39.2 °F 100% 30.11 in 4.0 mi Calm Calm - N/A   Partly Cloudy
7:07 AM 39.2 °F - 39.2 °F 100% 30.11 in 1.8 mi Calm Calm - N/A   Partly Cloudy
7:10 AM 39.2 °F - 39.2 °F 100% 30.11 in 0.8 mi Calm Calm - N/A   Mist
7:22 AM 41.0 °F - 41.0 °F 100% 30.11 in 0.2 mi Calm Calm - N/A Fog Fog
7:29 AM 42.8 °F - 42.8 °F 100% 30.12 in 1.0 mi Calm Calm - N/A   Mist
7:33 AM 42.8 °F - 42.8 °F 100% 30.12 in 6.0 mi Calm Calm - N/A   Scattered Clouds
7:53 AM 46.4 °F - 44.6 °F 93% 30.12 in 10.0 mi Calm Calm - N/A   Clear
8:53 AM 52.0 °F - 46.9 °F 83% 30.14 in 10.0 mi East 6.9 mph - N/A   Clear
9:53 AM 54.0 °F - 45.0 °F 72% 30.14 in 10.0 mi East 5.8 mph - N/A   Partly Cloudy
10:53 AM 57.0 °F - 45.0 °F 64% 30.14 in 10.0 mi Calm Calm - N/A   Partly Cloudy
11:53 AM 60.1 °F - 44.1 °F 55% 30.11 in 10.0 mi Calm Calm - N/A   Partly Cloudy
12:53 PM 62.1 °F - 44.1 °F 52% 30.09 in 10.0 mi Calm Calm - N/A   Scattered Clouds
1:53 PM 64.0 °F - 42.1 °F 45% 30.07 in 10.0 mi Calm Calm - N/A   Scattered Clouds
2:53 PM 64.9 °F - 43.0 °F 45% 30.05 in 10.0 mi Calm Calm - N/A   Clear
3:53 PM 66.0 °F - 44.1 °F 45% 30.03 in 10.0 mi SSE 5.8 mph - N/A   Clear
4:53 PM 68.0 °F - 45.0 °F 43% 30.01 in 10.0 mi SSE 3.5 mph - N/A   Clear
5:53 PM 68.0 °F - 42.1 °F 39% 30.01 in 10.0 mi Calm Calm - N/A   Clear
6:53 PM 57.0 °F - 50.0 °F 77% 30.02 in 10.0 mi Calm Calm - N/A   Clear
7:53 PM 54.0 °F - 46.9 °F 77% 30.03 in 10.0 mi WSW 3.5 mph - N/A   Clear
8:53 PM 50.0 °F - 48.9 °F 96% 30.04 in 10.0 mi Calm Calm - N/A   Clear
9:53 PM 46.9 °F - 46.0 °F 97% 30.04 in 10.0 mi Calm Calm - N/A   Clear
10:53 PM 45.0 °F - 45.0 °F 100% 30.06 in 10.0 mi Calm Calm - N/A   Clear
11:53 PM 43.0 °F - 41.0 °F 93% 30.06 in 10.0 mi Calm Calm - N/A   Clear